datetime,inflow
1965-10-26,1178.52504
1965-10-27,1204.563
1965-10-28,967.82452
1965-10-29,1181.56528
1965-10-30,1161.95227
1965-10-31,1131.93787
1965-11-01,970.47186
1965-11-02,1043.34786
1965-11-03,1056.16114
1965-11-04,1059.63034
1965-11-05,1074.60608
1965-11-06,1059.92583
1965-11-07,1016.74688
1965-11-08,1009.88228
1965-11-09,1018.05218
1965-11-10,1036.30543
1965-11-11,1032.79848
1965-11-12,924.49164
1965-11-13,930.21744
1965-11-14,964.6109
1965-11-15,1016.67358
1965-11-16,1027.32306
1965-11-17,1050.84232
1965-11-18,1058.74101
1965-11-19,1107.57188
1965-11-20,1152.12674
1965-11-21,1135.08852
1965-11-22,1012.65936
1965-11-23,983.86363
1965-11-24,1100.51906
1965-11-25,1087.01059
1965-11-26,1058.92835
1965-11-27,742.42778
1965-11-28,702.70209
1965-11-29,649.125
1965-11-30,641.7125
1965-12-01,642.60368
1965-12-02,713.43151
1965-12-03,786.37069
1965-12-04,777.88594
1965-12-05,718.92859
1965-12-06,702.82252
1965-12-07,666.06488
1965-12-08,647.74344
1965-12-09,652.34205
1965-12-10,671.80464
1965-12-11,708.07554
1965-12-12,761.43535
1965-12-13,753.17292
1965-12-14,773.0577
1965-12-15,716.86747
1965-12-16,664.9022
1965-12-17,626.66197
1965-12-18,583.34108
1965-12-19,567.25218
1965-12-20,585.91189
1965-12-21,624.23135
1965-12-22,576.83553
1965-12-23,624.22999
1965-12-24,643.39389
1965-12-25,605.07723
1965-12-26,547.59387
1965-12-27,585.40358
1965-12-28,562.16324
1965-12-29,588.82159
1965-12-30,621.89381
1965-12-31,687.37438
1966-01-01,696.45632
1966-01-02,725.70914
1966-01-03,656.99943
1966-01-04,594.3452
1966-01-05,642.73962
1966-01-06,700.21741
1966-01-07,805.11056
1966-01-08,846.53558
1966-01-09,800.1704
1966-01-10,768.52733
1966-01-11,727.0551
1966-01-12,714.78289
1966-01-13,743.12454
1966-01-14,728.45922
1966-01-15,743.0286
1966-01-16,704.03968
1966-01-17,648.12716
1966-01-18,599.45346
1966-01-19,564.51867
1966-01-20,539.395
1966-01-21,551.24085
1966-01-22,527.40578
1966-01-23,539.05995
1966-01-24,562.79339
1966-01-25,560.37832
1966-01-26,570.0411
1966-01-27,570.04972
1966-01-28,570.05836
1966-01-29,530.25705
1966-01-30,553.99337
1966-01-31,554.50476
1966-02-01,568.66479
1966-02-02,568.68314
1966-02-03,569.11261
1966-02-04,573.70179
1966-02-05,555.05484
1966-02-06,575.22321
1966-02-07,572.15683
1966-02-08,571.42367
1966-02-09,570.18201
1966-02-10,559.09721
1966-02-11,573.26534
1966-02-12,541.51664
1966-02-13,524.85672
1966-02-14,501.28255
1966-02-15,536.59751
1966-02-16,531.5875
1966-02-17,527.15803
1966-02-18,544.20528
1966-02-19,542.71091
1966-02-20,575.53056
1966-02-21,573.04195
1966-02-22,568.04911
1966-02-23,561.55209
1966-02-24,556.56765
1966-02-25,555.07062
1966-02-26,545.49721
1966-02-27,524.34175
1966-02-28,528.92519
1966-03-01,549.09908
1966-03-02,551.77548
1966-03-03,578.53094
1966-03-04,537.62509
1966-03-05,515.87321
1966-03-06,511.20179
1966-03-07,517.61231
1966-03-08,558.71379
1966-03-09,594.69464
1966-03-10,636.70467
1966-03-11,619.89651
1966-03-12,596.32023
1966-03-13,618.06488
1966-03-14,635.1202
1966-03-15,661.76802
1966-03-16,682.05811
1966-03-17,656.74888
1966-03-18,642.01947
1966-03-19,615.1092
1966-03-20,637.86668
1966-03-21,647.45265
1966-03-22,620.19639
1966-03-23,593.87973
1966-03-24,620.11174
1966-03-25,639.02642
1966-03-26,706.09715
1966-03-27,761.95387
1966-03-28,872.63104
1966-03-29,978.92938
1966-03-30,1133.5416
1966-03-31,1553.74906
1966-04-01,2687.7118
1966-04-02,3444.03916
1966-04-03,3336.4315
1966-04-04,3184.73726
1966-04-05,2806.25215
1966-04-06,2488.46662
1966-04-07,2635.76438
1966-04-08,2724.69044
1966-04-09,2582.10387
1966-04-10,2280.60549
1966-04-11,2148.0254
1966-04-12,1907.9217
1966-04-13,1642.73363
1966-04-14,1512.53412
1966-04-15,1486.70222
1966-04-16,1449.13788
1966-04-17,1563.53402
1966-04-18,1628.10753
1966-04-19,1532.88742
1966-04-20,1269.73755
1966-04-21,1274.53851
1966-04-22,1324.67027
1966-04-23,1329.55484
1966-04-24,1340.10319
1966-04-25,1333.09387
1966-04-26,1345.15834
1966-04-27,1347.97197
1966-04-28,1284.88356
1966-04-29,1163.45083
1966-04-30,1103.17895
1966-05-01,1059.13679
1966-05-02,1027.45705
1966-05-03,1070.42596
1966-05-04,1203.34184
1966-05-05,1399.99121
1966-05-06,1634.97331
1966-05-07,2043.05236
1966-05-08,2749.13876
1966-05-09,3689.78083
1966-05-10,4269.72654
1966-05-11,4991.01926
1966-05-12,4832.23231
1966-05-13,3834.78206
1966-05-14,3437.94307
1966-05-15,2972.03463
1966-05-16,2485.95313
1966-05-17,2159.31509
1966-05-18,1949.68013
1966-05-19,1732.93381
1966-05-20,1677.95851
1966-05-21,1562.16714
1966-05-22,1701.33904
1966-05-23,2139.22454
1966-05-24,2307.54805
1966-05-25,2179.23857
1966-05-26,2120.04806
1966-05-27,2318.50426
1966-05-28,2715.72271
1966-05-29,3289.14695
1966-05-30,3694.43637
1966-05-31,4037.86644
1966-06-01,4487.57958
1966-06-02,4565.2057
1966-06-03,4067.67929
1966-06-04,3495.01764
1966-06-05,3121.23381
1966-06-06,2731.16449
1966-06-07,2416.3664
1966-06-08,2347.48871
1966-06-09,2556.31053
1966-06-10,2673.34626
1966-06-11,2682.84137
1966-06-12,2801.30499
1966-06-13,2719.06252
1966-06-14,2388.37552
1966-06-15,2085.84478
1966-06-16,1827.22624
1966-06-17,1704.42674
1966-06-18,1709.3857
1966-06-19,1957.15746
1966-06-20,2160.31782
1966-06-21,2345.81765
1966-06-22,2832.83108
1966-06-23,3616.50137
1966-06-24,3998.44496
1966-06-25,4056.64678
1966-06-26,3568.18169
1966-06-27,2891.19059
1966-06-28,2332.85344
1966-06-29,1930.45702
1966-06-30,1804.10516
1966-07-01,1788.243
1966-07-02,2039.5383
1966-07-03,2033.20021
1966-07-04,1860.37825
1966-07-05,1743.28405
1966-07-06,1644.72676
1966-07-07,1553.43081
1966-07-08,1393.6406
1966-07-09,1259.268
1966-07-10,1218.43093
1966-07-11,1278.52148
1966-07-12,1266.0457
1966-07-13,1299.51057
1966-07-14,1329.94126
1966-07-15,1320.78293
1966-07-16,1255.76702
1966-07-17,1215.80163
1966-07-18,1208.73839
1966-07-19,1214.82549
1966-07-20,1235.38223
1966-07-21,1250.00403
1966-07-22,1289.08071
1966-07-23,1299.51091
1966-07-24,1233.67425
1966-07-25,1203.0423
1966-07-26,1208.01528
1966-07-27,1234.19631
1966-07-28,1176.34156
1966-07-29,1110.95314
1966-07-30,1081.09296
1966-07-31,1041.57916
1966-08-01,1021.56125
1966-08-02,1016.19579
1966-08-03,1044.88069
1966-08-04,1072.42005
1966-08-05,1109.1963
1966-08-06,1082.31241
1966-08-07,1109.42966
1966-08-08,1130.24391
1966-08-09,1112.54158
1966-08-10,1044.16163
1966-08-11,972.92746
1966-08-12,928.969
1966-08-13,877.19829
1966-08-14,871.24853
1966-08-15,871.90705
1966-08-16,844.13188
1966-08-17,830.64828
1966-08-18,762.4823
1966-08-19,767.21567
1966-08-20,780.44872
1966-08-21,787.71419
1966-08-22,759.71785
1966-08-23,727.31048
1966-08-24,740.04417
1966-08-25,715.77831
1966-08-26,691.51581
1966-08-27,702.83938
1966-08-28,686.85013
1966-08-29,652.36234
1966-08-30,638.19642
1966-08-31,640.18008
1966-09-01,626.16789
1966-09-02,648.50421
1966-09-03,833.08486
1966-09-04,850.43791
1966-09-05,815.3448
1966-09-06,730.09734
1966-09-07,712.59423
1966-09-08,690.90601
1966-09-09,638.88587
1966-09-10,629.92984
1966-09-11,616.48759
1966-09-12,616.0388
1966-09-13,613.19006
1966-09-14,677.8426
1966-09-15,747.53636
1966-09-16,820.46958
1966-09-17,838.49719
1966-09-18,785.25888
1966-09-19,738.51007
1966-09-20,693.82182
1966-09-21,661.02337
1966-09-22,653.0781
1966-09-23,641.123
1966-09-24,621.09635
1966-09-25,653.49936
1966-09-26,608.15416
1966-09-27,599.05076
1966-09-28,596.03392
1966-09-29,580.35166
1966-09-30,563.74457
1966-10-01,570.30999
1966-10-02,571.79479
1966-10-03,555.20467
1966-10-04,570.85579
1966-10-05,568.35084
1966-10-06,566.18875
1966-10-07,541.51671
1966-10-08,545.57484
1966-10-09,528.48321
1966-10-10,520.46069
1966-10-11,518.52631
1966-10-12,515.43329
1966-10-13,558.34157
1966-10-14,591.1212
1966-10-15,579.37217
1966-10-16,562.30152
1966-10-17,581.56382
1966-10-18,582.18183
1966-10-19,600.94861
1966-10-20,598.46144
1966-10-21,614.89359
1966-10-22,620.43837
1966-10-23,595.32538
1966-10-24,601.26645
1966-10-25,605.82351
1966-10-26,609.35124
1966-10-27,615.39136
1966-10-28,617.44569
1966-10-29,566.94258
1966-10-30,553.77831
1966-10-31,552.31812
1966-11-01,597.22201
1966-11-02,596.16062
1966-11-03,574.02341
1966-11-04,574.94865
1966-11-05,553.68644
1966-11-06,571.8215
1966-11-07,584.33908
1966-11-08,574.78595
1966-11-09,561.60303
1966-11-10,548.42588
1966-11-11,573.15471
1966-11-12,586.17095
1966-11-13,575.60743
1966-11-14,601.82889
1966-11-15,584.72835
1966-11-16,585.83406
1966-11-17,583.72617
1966-11-18,563.12129
1966-11-19,568.01947
1966-11-20,540.10211
1966-11-21,537.29532
1966-11-22,568.68472
1966-11-23,542.17829
1966-11-24,510.08326
1966-11-25,518.87076
1966-11-26,549.35972
1966-11-27,556.25737
1966-11-28,572.6721
1966-11-29,598.48596
1966-11-30,608.10933
1966-12-01,644.33912
1966-12-02,649.56971
1966-12-03,620.68745
1966-12-04,584.90177
1966-12-05,577.91046
1966-12-06,528.29986
1966-12-07,475.59951
1966-12-08,355.29016
1966-12-09,416.46082
1966-12-10,450.06301
1966-12-11,436.06521
1966-12-12,444.6643
1966-12-13,457.77702
1966-12-14,459.07505
1966-12-15,448.06756
1966-12-16,423.66824
1966-12-17,435.2575
1966-12-18,411.5529
1966-12-19,420.64524
1966-12-20,424.73867
1966-12-21,406.53956
1966-12-22,415.52926
1966-12-23,398.33056
1966-12-24,388.44546
1966-12-25,389.54477
1966-12-26,414.76301
1966-12-27,402.16756
1966-12-28,413.8827
1966-12-29,382.902
1966-12-30,402.11515
1966-12-31,422.73355
1967-01-01,413.65504
1967-01-02,394.06291
1967-01-03,390.47803
1967-01-04,402.09423
1967-01-05,410.61044
1967-01-06,411.12669
1967-01-07,386.43236
1967-01-08,399.55167
1967-01-09,402.16787
1967-01-10,420.28936
1967-01-11,434.41193
1967-01-12,396.61039
1967-01-13,413.23492
1967-01-14,388.53226
1967-01-15,418.26519
1967-01-16,456.09299
1967-01-17,407.19144
1967-01-18,412.20241
1967-01-19,402.60809
1967-01-20,415.72739
1967-01-21,403.63728
1967-01-22,416.38291
1967-01-23,416.89838
1967-01-24,421.91803
1967-01-25,429.42517
1967-01-26,456.15952
1967-01-27,470.79507
1967-01-28,483.41501
1967-01-29,499.06117
1967-01-30,502.57394
1967-01-31,513.21287
1967-02-01,487.01198
1967-02-02,487.53197
1967-02-03,474.94247
1967-02-04,475.46125
1967-02-05,489.59339
1967-02-06,504.23079
1967-02-07,477.52435
1967-02-08,478.04288
1967-02-09,468.44363
1967-02-10,483.07882
1967-02-11,497.71513
1967-02-12,484.11699
1967-02-13,488.6355
1967-02-14,489.154
1967-02-15,517.90807
1967-02-16,504.81521
1967-02-17,519.95679
1967-02-18,506.35976
1967-02-19,535.61913
1967-02-20,507.90543
1967-02-21,493.80312
1967-02-22,498.32164
1967-02-23,513.46213
1967-02-24,513.98171
1967-02-25,529.62749
1967-02-26,544.77014
1967-02-27,535.67841
1967-02-28,535.69498
1967-03-01,599.71179
1967-03-02,615.36302
1967-03-03,603.28405
1967-03-04,633.55724
1967-03-05,635.09295
1967-03-06,606.37643
1967-03-07,607.40575
1967-03-08,593.81315
1967-03-09,609.96748
1967-03-10,626.12287
1967-03-11,628.16165
1967-03-12,644.82234
1967-03-13,635.23195
1967-03-14,635.75818
1967-03-15,621.66251
1967-03-16,622.84991
1967-03-17,608.75374
1967-03-18,629.57218
1967-03-19,631.10695
1967-03-20,648.4327
1967-03-21,633.33059
1967-03-22,638.86597
1967-03-23,672.83305
1967-03-24,695.01033
1967-03-25,679.57122
1967-03-26,697.74917
1967-03-27,778.82476
1967-03-28,774.3518
1967-03-29,845.92757
1967-03-30,950.14649
1967-03-31,1042.39442
1967-04-01,737.54788
1967-04-02,969.97032
1967-04-03,1017.47435
1967-04-04,981.10192
1967-04-05,1236.37205
1967-04-06,1363.03949
1967-04-07,1214.90904
1967-04-08,1119.25004
1967-04-09,1109.48384
1967-04-10,1098.20813
1967-04-11,1114.80964
1967-04-12,1146.4013
1967-04-13,1156.62095
1967-04-14,1082.96938
1967-04-15,1217.63057
1967-04-16,1230.71487
1967-04-17,1179.733
1967-04-18,1088.31038
1967-04-19,1065.94669
1967-04-20,1080.29049
1967-04-21,1045.52043
1967-04-22,1008.51093
1967-04-23,812.60886
1967-04-24,888.46033
1967-04-25,1001.80409
1967-04-26,816.25576
1967-04-27,864.57773
1967-04-28,888.43482
1967-04-29,958.59566
1967-04-30,1031.17868
1967-05-01,1164.27197
1967-05-02,1006.12126
1967-05-03,979.10752
1967-05-04,1106.62958
1967-05-05,1181.54217
1967-05-06,1245.60672
1967-05-07,1110.47135
1967-05-08,1110.90057
1967-05-09,1107.61285
1967-05-10,1117.92568
1967-05-11,1193.21138
1967-05-12,1206.6379
1967-05-13,1075.65197
1967-05-14,1108.61392
1967-05-15,1144.66928
1967-05-16,1107.35578
1967-05-17,1004.30762
1967-05-18,965.25406
1967-05-19,1118.68588
1967-05-20,1278.83346
1967-05-21,1358.77506
1967-05-22,1524.47879
1967-05-23,1608.29888
1967-05-24,1882.69456
1967-05-25,2136.91462
1967-05-26,3270.82188
1967-05-27,4750.28314
1967-05-28,5985.56373
1967-05-29,6746.90145
1967-05-30,7961.06985
1967-05-31,9680.65933
1967-06-01,7788.74015
1967-06-02,7443.17975
1967-06-03,6829.87234
1967-06-04,6664.70294
1967-06-05,6505.12359
1967-06-06,6294.05222
1967-06-07,5896.14723
1967-06-08,6782.75661
1967-06-09,6797.20125
1967-06-10,6540.33976
1967-06-11,6300.60259
1967-06-12,5936.71107
1967-06-13,5628.096
1967-06-14,5827.6916
1967-06-15,6395.5323
1967-06-16,6845.50986
1967-06-17,6631.71013
1967-06-18,6189.51442
1967-06-19,6307.85421
1967-06-20,6573.37984
1967-06-21,7980.33808
1967-06-22,9419.11767
1967-06-23,10501.3138
1967-06-24,11547.6881
1967-06-25,12453.2519
1967-06-26,10951.6068
1967-06-27,9292.9637
1967-06-28,8747.9327
1967-06-29,9346.76612
1967-06-30,10540.0932
1967-07-01,10393.3663
1967-07-02,9906.73869
1967-07-03,9643.15587
1967-07-04,9857.02137
1967-07-05,9995.44869
1967-07-06,10402.8702
1967-07-07,10212.5428
1967-07-08,9718.78711
1967-07-09,9228.76178
1967-07-10,8423.75052
1967-07-11,7581.56503
1967-07-12,6690.30269
1967-07-13,6400.59699
1967-07-14,5996.99112
1967-07-15,5756.7567
1967-07-16,5770.91757
1967-07-17,5578.56727
1967-07-18,5592.58283
1967-07-19,5503.0531
1967-07-20,5242.06073
1967-07-21,4847.65354
1967-07-22,4328.02336
1967-07-23,4012.23776
1967-07-24,3969.82813
1967-07-25,2584.56969
1967-07-26,2976.0545
1967-07-27,3156.18601
1967-07-28,2890.40791
1967-07-29,3693.77339
1967-07-30,2885.58204
1967-07-31,2342.32482
1967-08-01,2306.93026
1967-08-02,2283.86823
1967-08-03,2047.35117
1967-08-04,1969.49983
1967-08-05,1905.61991
1967-08-06,1839.58609
1967-08-07,1796.29683
1967-08-08,1775.52813
1967-08-09,1786.35446
1967-08-10,1805.01464
1967-08-11,1670.75373
1967-08-12,1572.18669
1967-08-13,1463.13593
1967-08-14,1442.9812
1967-08-15,1387.54533
1967-08-16,1290.29723
1967-08-17,1180.3572
1967-08-18,1083.42221
1967-08-19,1049.9332
1967-08-20,1006.39266
1967-08-21,975.55742
1967-08-22,955.02288
1967-08-23,882.2226
1967-08-24,824.1941
1967-08-25,853.93398
1967-08-26,868.24674
1967-08-27,834.90618
1967-08-28,770.62553
1967-08-29,776.358
1967-08-30,780.75391
1967-08-31,798.46866
1967-09-01,927.62207
1967-09-02,901.27226
1967-09-03,869.07797
1967-09-04,829.23804
1967-09-05,813.75032
1967-09-06,805.06033
1967-09-07,776.76616
1967-09-08,746.7243
1967-09-09,696.05832
1967-09-10,764.82179
1967-09-11,817.00996
1967-09-12,832.41823
1967-09-13,857.05446
1967-09-14,893.1092
1967-09-15,885.58155
1967-09-16,854.18511
1967-09-17,821.41562
1967-09-18,853.1961
1967-09-19,925.76806
1967-09-20,918.8996
1967-09-21,872.4098
1967-09-22,816.31507
1967-09-23,785.41773
1967-09-24,769.22311
1967-09-25,760.48269
1967-09-26,763.19682
1967-09-27,747.12717
1967-09-28,754.62278
1967-09-29,739.05975
1967-09-30,738.92257
1967-10-01,732.78238
1967-10-02,792.1949
1967-10-03,845.05216
1967-10-04,869.10023
1967-10-05,869.63587
1967-10-06,910.33577
1967-10-07,984.40822
1967-10-08,1244.0133
1967-10-09,1152.71646
1967-10-10,1182.83923
1967-10-11,1120.40259
1967-10-12,1080.36915
1967-10-13,1073.1848
1967-10-14,1033.3026
1967-10-15,831.94883
1967-10-16,795.38784
1967-10-17,814.53761
1967-10-18,827.03631
1967-10-19,827.04534
1967-10-20,795.79981
1967-10-21,787.66387
1967-10-22,779.52549
1967-10-23,779.83177
1967-10-24,811.75361
1967-10-25,827.38874
1967-10-26,843.9558
1967-10-27,843.88484
1967-10-28,828.26146
1967-10-29,827.17785
1967-10-30,803.460876
1967-10-31,811.97376
1967-11-01,835.6769
1967-11-02,811.39746
1967-11-03,795.26237
1967-11-04,754.8374
1967-11-05,746.17369
1967-11-06,740.6914400000001
1967-11-07,731.81943
1967-11-08,758.07081
1967-11-09,776.17516
1967-11-10,812.43378
1967-11-11,841.72242
1967-11-12,801.84516
1967-11-13,809.0387
1967-11-14,758.55709
1967-11-15,755.39186
1967-11-16,763.39971
1967-11-17,748.46729
1967-11-18,730.43239
1967-11-19,728.87836
1967-11-20,757.89005
1967-11-21,823.6481
1967-11-22,815.57134
1967-11-23,773.80973
1967-11-24,845.40486
1967-11-25,777.81686
1967-11-26,683.27437
1967-11-27,570.4979
1967-11-28,545.35682
1967-11-29,577.28338
1967-11-30,601.64485
1967-12-01,565.89493
1967-12-02,532.62538
1967-12-03,526.61267
1967-12-04,556.40015
1967-12-05,533.75001
1967-12-06,492.43849
1967-12-07,480.33244
1967-12-08,500.02509
1967-12-09,511.05738
1967-12-10,540.83802
1967-12-11,524.55479
1967-12-12,498.53263
1967-12-13,486.93691
1967-12-14,537.39389
1967-12-15,541.46761
1967-12-16,564.70243
1967-12-17,532.9442
1967-12-18,536.00679
1967-12-19,529.4835
1967-12-20,541.61309
1967-12-21,540.1635
1967-12-22,531.62113
1967-12-23,577.02897
1967-12-24,590.67544
1967-12-25,579.64999
1967-12-26,534.33679
1967-12-27,541.39029
1967-12-28,520.74573
1967-12-29,556.57113
1967-12-30,536.93603
1967-12-31,482.00379
1968-01-01,556.11141
1968-01-02,569.75349
1968-01-03,541.51315
1968-01-04,531.95916
1968-01-05,541.09377
1968-01-06,547.64091
1968-01-07,525.48165
1968-01-08,535.11935
1968-01-09,508.959
1968-01-10,522.59564
1968-01-11,545.34279
1968-01-12,488.86358
1968-01-13,469.69054
1968-01-14,486.81855
1968-01-15,492.35079
1968-01-16,521.58939
1968-01-17,514.51853
1968-01-18,501.83298
1968-01-19,516.36409
1968-01-20,521.88687
1968-01-21,548.62851
1968-01-22,525.08056
1968-01-23,538.20919
1968-01-24,565.96096
1968-01-25,580.10136
1968-01-26,549.91449
1968-01-27,552.0621
1968-01-28,522.3699
1968-01-29,510.2891
1968-01-30,507.82085
1968-01-31,527.06731
1968-02-01,528.60125
1968-02-02,529.631
1968-02-03,503.4331
1968-02-04,532.19158
1968-02-05,557.95229
1968-02-06,587.21936
1968-02-07,589.26143
1968-02-08,563.06796
1968-02-09,564.6037
1968-02-10,579.75297
1968-02-11,581.79396
1968-02-12,569.21301
1968-02-13,570.24453
1968-02-14,557.15826
1968-02-15,515.83541
1968-02-16,442.74447
1968-02-17,473.51411
1968-02-18,503.27765
1968-02-19,529.04333
1968-02-20,541.70186
1968-02-21,542.22701
1968-02-22,543.76051
1968-02-23,545.29399
1968-02-24,515.56692
1968-02-25,532.72848
1968-02-26,522.12643
1968-02-27,537.77545
1968-02-28,524.68593
1968-02-29,509.57858
1968-03-01,529.73068
1968-03-02,596.78309
1968-03-03,550.41961
1968-03-04,536.32173
1968-03-05,572.1052
1968-03-06,574.64707
1968-03-07,559.03775
1968-03-08,576.20041
1968-03-09,593.36419
1968-03-10,546.99962
1968-03-11,531.89233
1968-03-12,536.41413
1968-03-13,573.70903
1968-03-14,619.97256
1968-03-15,644.301
1968-03-16,630.37064
1968-03-17,632.41125
1968-03-18,678.51565
1968-03-19,746.61094
1968-03-20,800.25553
1968-03-21,887.51978
1968-03-22,873.44525
1968-03-23,828.28272
1968-03-24,887.7978
1968-03-25,984.75944
1968-03-26,1050.74944
1968-03-27,1111.9022
1968-03-28,1048.17467
1968-03-29,1135.53976
1968-03-30,1297.78867
1968-03-31,1450.55385
1968-04-01,1386.25275
1968-04-02,1450.73019
1968-04-03,1520.92971
1968-04-04,1469.29299
1968-04-05,1341.84008
1968-04-06,1285.60949
1968-04-07,1205.02948
1968-04-08,1063.61783
1968-04-09,995.62092
1968-04-10,999.71976
1968-04-11,1216.79081
1968-04-12,1400.41383
1968-04-13,1478.82788
1968-04-14,1372.55145
1968-04-15,1187.76476
1968-04-16,1139.60444
1968-04-17,1231.62272
1968-04-18,1075.61056
1968-04-19,1038.07601
1968-04-20,1027.72533
1968-04-21,989.89571
1968-04-22,951.35045
1968-04-23,933.47585
1968-04-24,937.28789
1968-04-25,957.79278
1968-04-26,908.75261
1968-04-27,918.08177
1968-04-28,964.76996
1968-04-29,991.51855
1968-04-30,1041.24913
1968-05-01,1138.86087
1968-05-02,1346.4875
1968-05-03,1543.49405
1968-05-04,1619.92622
1968-05-05,1688.89285
1968-05-06,1852.20526
1968-05-07,1836.02741
1968-05-08,1554.04308
1968-05-09,1338.57489
1968-05-10,1347.61713
1968-05-11,1497.19906
1968-05-12,1575.70912
1968-05-13,1638.02492
1968-05-14,1844.39289
1968-05-15,1828.17462
1968-05-16,1625.73158
1968-05-17,1448.04792
1968-05-18,1235.29744
1968-05-19,1107.45591
1968-05-20,1045.38448
1968-05-21,1057.66437
1968-05-22,1154.25336
1968-05-23,1239.12524
1968-05-24,1564.2487
1968-05-25,1752.22606
1968-05-26,1630.91451
1968-05-27,1579.53017
1968-05-28,1508.05835
1968-05-29,1518.18399
1968-05-30,1727.53191
1968-05-31,2425.58248
1968-06-01,2501.17496
1968-06-02,2681.03474
1968-06-03,3101.52786
1968-06-04,4067.70783
1968-06-05,6573.56296
1968-06-06,8840.40839
1968-06-07,9789.16091
1968-06-08,10198.8651
1968-06-09,9360.03935
1968-06-10,8233.56573
1968-06-11,6543.07345
1968-06-12,5319.99571
1968-06-13,4969.75292
1968-06-14,5027.11402
1968-06-15,5279.73878
1968-06-16,4894.69351
1968-06-17,4582.08987
1968-06-18,4750.95277
1968-06-19,5285.94618
1968-06-20,6210.94402
1968-06-21,7091.34369
1968-06-22,7976.16616
1968-06-23,8823.97143
1968-06-24,9027.65122
1968-06-25,8930.55281
1968-06-26,7886.38845
1968-06-27,6683.66423
1968-06-28,5305.0883
1968-06-29,4848.45837
1968-06-30,5027.89969
1968-07-01,4632.03043
1968-07-02,3887.35489
1968-07-03,3154.26104
1968-07-04,2548.34613
1968-07-05,2324.05702
1968-07-06,2290.37146
1968-07-07,2375.59575
1968-07-08,2535.45648
1968-07-09,2761.98182
1968-07-10,2864.67848
1968-07-11,2983.3694
1968-07-12,3137.28286
1968-07-13,3223.98912
1968-07-14,3260.9572
1968-07-15,3215.48888
1968-07-16,3157.77917
1968-07-17,3239.77351
1968-07-18,3099.02452
1968-07-19,2915.98761
1968-07-20,2744.90526
1968-07-21,2553.57617
1968-07-22,2468.69787
1968-07-23,2330.35236
1968-07-24,2185.98961
1968-07-25,2169.92052
1968-07-26,2161.88142
1968-07-27,2136.12421
1968-07-28,1974.87631
1968-07-29,1824.71795
1968-07-30,1776.05768
1968-07-31,1674.09369
1968-08-01,1664.6422
1968-08-02,1666.1326
1968-08-03,1543.75331
1968-08-04,1495.63789
1968-08-05,1383.07604
1968-08-06,1299.99171
1968-08-07,1210.32873
1968-08-08,1250.76625
1968-08-09,1463.57135
1968-08-10,2121.35124
1968-08-11,2213.44728
1968-08-12,2172.86461
1968-08-13,2247.5835
1968-08-14,2098.30517
1968-08-15,2039.37585
1968-08-16,1911.3741
1968-08-17,1924.08478
1968-08-18,1852.4301
1968-08-19,1899.13891
1968-08-20,1912.95426
1968-08-21,1963.89923
1968-08-22,2372.1242
1968-08-23,3151.19177
1968-08-24,3986.67094
1968-08-25,4243.12833
1968-08-26,3961.29838
1968-08-27,3450.51684
1968-08-28,3188.12033
1968-08-29,2865.68199
1968-08-30,2577.56931
1968-08-31,2390.53636
1968-09-01,2051.90493
1968-09-02,1861.14046
1968-09-03,1776.28937
1968-09-04,1819.20406
1968-09-05,1828.78914
1968-09-06,1704.49078
1968-09-07,1635.31523
1968-09-08,1527.41429
1968-09-09,1399.55384
1968-09-10,1364.90877
1968-09-11,1291.77277
1968-09-12,1253.77386
1968-09-13,1170.13764
1968-09-14,1139.5327
1968-09-15,1159.8288
1968-09-16,1226.88038
1968-09-17,1273.60762
1968-09-18,1303.37343
1968-09-19,1302.96871
1968-09-20,1226.09241
1968-09-21,1217.35815
1968-09-22,1257.26965
1968-09-23,1297.68933
1968-09-24,1247.43999
1968-09-25,1181.77901
1968-09-26,1174.54654
1968-09-27,1169.23452
1968-09-28,1097.92413
1968-09-29,1128.27367
1968-09-30,1154.67929
1968-10-01,1201.17506
1968-10-02,1154.99201
1968-10-03,1155.68779
1968-10-04,1135.80291
1968-10-05,1105.57703
1968-10-06,1099.13357
1968-10-07,1043.11337
1968-10-08,1073.31158
1968-10-09,1031.67094
1968-10-10,1018.33901
1968-10-11,1009.29606
1968-10-12,1000.22743
1968-10-13,960.1112
1968-10-14,968.0817
1968-10-15,1108.88617
1968-10-16,1201.3837
1968-10-17,1253.46801
1968-10-18,1221.98013
1968-10-19,1163.2024
1968-10-20,1128.90449
1968-10-21,1117.60886
1968-10-22,1125.64448
1968-10-23,1090.85101
1968-10-24,1098.47256
1968-10-25,1086.78537
1968-10-26,1064.91338
1968-10-27,1017.74798
1968-10-28,997.53697
1968-10-29,983.05066
1968-10-30,990.15557
1968-10-31,969.06273
1968-11-01,864.75558
1968-11-02,804.49614
1968-11-03,810.56281
1968-11-04,859.50937
1968-11-05,875.85414
1968-11-06,840.58165
1968-11-07,831.00603
1968-11-08,805.19613
1968-11-09,678.4096
1968-11-10,782.48668
1968-11-11,787.46843
1968-11-12,923.80577
1968-11-13,821.70305
1968-11-14,843.87053
1968-11-15,687.81554
1968-11-16,753.42251
1968-11-17,652.5252
1968-11-18,436.55841
1968-11-19,569.29582
1968-11-20,816.21687
1968-11-21,867.51304